timestamp,surface_pressure_avg,surface_temp_avg,battery_voltage,lat,long
2021-06-08 00:09:01+00:00,303.4514,9.7,13.05,47.84626,-54.09684
2021-06-08 00:19:01+00:00,302.378,9.7,12.81,47.84626,-54.09684
2021-06-08 00:29:01+00:00,297.33299999999997,9.7,12.81,47.84626,-54.09684
2021-06-08 00:39:01+00:00,284.3347,9.7,12.81,47.84626,-54.09684
2021-06-08 00:49:01+00:00,276.9747,9.69,12.81,47.84626,-54.09684
2021-06-08 00:59:01+00:00,275.3331,9.69,12.81,47.84626,-54.09684
2021-06-08 01:09:01+00:00,270.4198,9.69,12.81,47.84626,-54.09684
2021-06-08 01:19:01+00:00,267.9397,9.68,12.65,47.84626,-54.09684
2021-06-08 01:29:01+00:00,265.9481,9.66,12.65,47.84626,-54.09684
2021-06-08 01:39:01+00:00,260.0781,9.6,12.65,47.84626,-54.09684
2021-06-08 01:49:01+00:00,252.0931,9.6,12.65,47.84626,-54.09684
2021-06-08 01:59:01+00:00,249.0747,9.6,12.65,47.84626,-54.09684
2021-06-08 02:09:01+00:00,242.2848,9.6,12.65,47.84626,-54.09684
2021-06-08 02:19:01+00:00,234.3964,9.59,12.65,47.84626,-54.09684
2021-06-08 02:29:01+00:00,230.2214,9.59,12.65,47.84626,-54.09684
2021-06-08 02:39:01+00:00,227.9131,9.6,12.65,47.84626,-54.09684
2021-06-08 02:49:01+00:00,223.5881,9.59,12.65,47.84626,-54.09684
2021-06-08 02:59:01+00:00,216.5148,9.58,12.65,47.84626,-54.09684
2021-06-08 03:09:01+00:00,209.4147,9.57,12.65,47.84626,-54.09684
2021-06-08 03:19:00+00:00,203.5698,9.56,12.65,47.84626,-54.09684
2021-06-08 03:29:00+00:00,198.1598,9.55,12.65,47.84626,-54.09684
2021-06-08 03:39:00+00:00,198.1898,9.53,12.65,47.84626,-54.09684
2021-06-08 03:49:00+00:00,193.8631,9.5,12.65,47.84626,-54.09684
2021-06-08 03:59:00+00:00,186.1065,9.5,12.65,47.84626,-54.09684
2021-06-08 04:09:00+00:00,191.2848,9.5,12.65,47.84626,-54.09684
2021-06-08 04:19:01+00:00,201.1381,9.53,12.65,47.84626,-54.09684
2021-06-08 04:29:01+00:00,196.7181,9.5,12.65,47.84626,-54.09684
2021-06-08 04:39:01+00:00,195.1915,9.5,12.65,47.84626,-54.09684
2021-06-08 04:49:01+00:00,202.6964,9.5,12.65,47.84626,-54.09684
2021-06-08 04:59:01+00:00,200.5297,9.5,12.65,47.84626,-54.09684
2021-06-08 05:09:01+00:00,196.2715,9.5,12.65,47.84626,-54.09684
2021-06-08 05:19:01+00:00,203.2848,9.5,12.65,47.84626,-54.09684
2021-06-08 05:29:01+00:00,209.4615,9.5,12.65,47.84626,-54.09684
2021-06-08 05:39:01+00:00,203.2448,9.5,12.65,47.84626,-54.09684
2021-06-08 05:49:01+00:00,202.6181,9.5,12.65,47.84626,-54.09684
2021-06-08 05:59:01+00:00,209.5381,9.5,12.65,47.84626,-54.09684
2021-06-08 06:09:01+00:00,211.2281,9.5,12.65,47.84626,-54.09684
2021-06-08 06:19:01+00:00,214.8381,9.5,12.57,47.84626,-54.09684
2021-06-08 06:29:01+00:00,221.1847,9.5,12.57,47.84626,-54.09684
2021-06-08 06:39:01+00:00,222.6381,9.5,12.57,47.84626,-54.09684
2021-06-08 06:49:01+00:00,226.0081,9.5,12.57,47.84626,-54.09684
2021-06-08 06:59:01+00:00,236.7564,9.5,12.57,47.84626,-54.09684
2021-06-08 07:09:01+00:00,237.8914,9.52,12.57,47.84626,-54.09684
2021-06-08 07:19:01+00:00,234.5981,9.6,12.57,47.84626,-54.09684
2021-06-08 07:29:01+00:00,243.3865,9.6,12.57,47.84626,-54.09684
2021-06-08 07:39:01+00:00,257.8364,9.6,12.57,47.84626,-54.09684
2021-06-08 07:49:01+00:00,262.8464,9.6,12.57,47.84626,-54.09684
2021-06-08 07:59:01+00:00,261.1931,9.6,12.57,47.84626,-54.09684
2021-06-08 08:09:01+00:00,273.8447,9.6,12.57,47.84626,-54.09684
2021-06-08 08:19:01+00:00,285.418,9.6,12.57,47.84626,-54.09684
2021-06-08 08:29:01+00:00,287.973,9.61,12.57,47.84626,-54.09684
2021-06-08 08:39:01+00:00,289.123,9.68,12.57,47.84626,-54.09684
2021-06-08 08:49:01+00:00,297.7297,9.69,12.57,47.84626,-54.09684
2021-06-08 08:59:01+00:00,304.4014,9.7,12.57,47.84626,-54.09684
2021-06-08 09:09:01+00:00,308.1364,9.7,12.57,47.84626,-54.09684
2021-06-08 09:19:01+00:00,312.2347,9.7,12.57,47.84626,-54.09684
2021-06-08 09:29:01+00:00,317.3846,9.7,12.57,47.84626,-54.09684
2021-06-08 09:39:01+00:00,322.923,9.7,12.57,47.84626,-54.09684
2021-06-08 09:49:01+00:00,323.9713,9.7,12.57,47.84626,-54.09684
2021-06-08 09:59:01+00:00,319.9747,9.7,12.57,47.84626,-54.09684
2021-06-08 10:09:01+00:00,321.1847,9.7,12.57,47.84626,-54.09684
2021-06-08 10:19:01+00:00,328.0996,9.7,12.65,47.84626,-54.09684
2021-06-08 10:29:01+00:00,326.27299999999997,9.7,12.65,47.84626,-54.09684
2021-06-08 10:39:01+00:00,315.8813,9.7,12.65,47.84626,-54.09684
2021-06-08 10:49:01+00:00,314.8597,9.7,12.65,47.84626,-54.09684
2021-06-08 10:59:01+00:00,321.7729,9.7,12.65,47.84626,-54.09684
2021-06-08 11:09:01+00:00,318.7679,9.7,12.65,47.84626,-54.09684
2021-06-08 11:19:01+00:00,313.1964,9.7,12.97,47.84626,-54.09684
2021-06-08 11:29:01+00:00,312.8013,9.7,12.97,47.84626,-54.09684
2021-06-08 11:39:01+00:00,310.7229,9.7,12.97,47.84626,-54.09684
2021-06-08 11:49:01+00:00,303.2864,9.7,12.97,47.84626,-54.09684
2021-06-08 11:59:01+00:00,301.588,9.71,12.97,47.84626,-54.09684
2021-06-08 12:09:01+00:00,301.1263,9.7,12.97,47.84626,-54.09684
2021-06-08 12:19:00+00:00,294.218,9.72,14.08,47.84626,-54.09684
2021-06-08 12:29:00+00:00,290.5598,9.75,14.08,47.84626,-54.09684
2021-06-08 12:39:00+00:00,288.1981,9.75,14.08,47.84626,-54.09684
2021-06-08 12:49:00+00:00,280.558,9.75,14.08,47.84626,-54.09684
2021-06-08 12:59:00+00:00,274.2564,9.77,14.08,47.84626,-54.09684
2021-06-08 13:09:00+00:00,274.0564,9.77,14.08,47.84626,-54.09684
2021-06-08 13:19:00+00:00,270.7065,9.78,14.48,47.84626,-54.09684
2021-06-08 13:29:00+00:00,261.9114,9.78,14.48,47.84626,-54.09684
2021-06-08 13:39:00+00:00,256.3481,9.78,14.48,47.84626,-54.09684
2021-06-08 13:49:00+00:00,250.7714,9.79,14.48,47.84626,-54.09684
2021-06-08 13:59:00+00:00,248.4514,9.79,14.48,47.84626,-54.09684
2021-06-08 14:09:00+00:00,243.4914,9.79,14.48,47.84626,-54.09684
2021-06-08 14:19:01+00:00,238.5048,9.8,14.48,47.84626,-54.09684
2021-06-08 14:29:01+00:00,232.4748,9.86,14.48,47.84626,-54.09684
2021-06-08 14:39:01+00:00,230.2131,9.9,14.48,47.84626,-54.09684
2021-06-08 14:49:01+00:00,225.4564,9.9,14.48,47.84626,-54.09684
2021-06-08 14:59:01+00:00,219.8064,9.9,14.48,47.84626,-54.09684
2021-06-08 15:09:01+00:00,217.8048,9.9,14.48,47.84626,-54.09684
2021-06-08 15:19:01+00:00,219.5998,9.9,14.4,47.84626,-54.09684
2021-06-08 15:29:01+00:00,218.5565,9.92,14.4,47.84626,-54.09684
2021-06-08 15:39:01+00:00,211.0614,9.98,14.4,47.84626,-54.09684
2021-06-08 15:49:01+00:00,207.2031,10.0,14.4,47.84626,-54.09684
2021-06-08 15:59:01+00:00,211.4931,10.0,14.4,47.84626,-54.09684
2021-06-08 16:09:01+00:00,213.1731,10.0,14.4,47.84626,-54.09684
2021-06-08 16:19:00+00:00,210.3365,10.02,14.32,47.84626,-54.09684
2021-06-08 16:29:00+00:00,210.0914,10.1,14.32,47.84626,-54.09684
2021-06-08 16:39:00+00:00,212.8148,10.11,14.32,47.84626,-54.09684
2021-06-08 16:49:00+00:00,212.0931,10.16,14.32,47.84626,-54.09684
2021-06-08 16:59:00+00:00,212.5414,10.19,14.32,47.84626,-54.09684
2021-06-08 17:09:00+00:00,217.2381,10.2,14.32,47.84626,-54.09684
2021-06-08 17:19:01+00:00,222.8431,10.2,14.16,47.84626,-54.09684
2021-06-08 17:29:01+00:00,225.4114,10.2,14.16,47.84626,-54.09684
2021-06-08 17:39:01+00:00,224.6148,10.2,14.16,47.84626,-54.09684
2021-06-08 17:49:01+00:00,224.9931,10.2,14.16,47.84626,-54.09684
2021-06-08 17:59:01+00:00,229.3698,10.2,14.16,47.84626,-54.09684
2021-06-08 18:09:01+00:00,235.6448,10.2,14.16,47.84626,-54.09684
2021-06-08 18:19:01+00:00,239.4981,10.19,14.0,47.84626,-54.09684
2021-06-08 18:29:01+00:00,243.8614,10.19,14.0,47.84626,-54.09684
2021-06-08 18:39:01+00:00,251.7598,10.18,14.0,47.84626,-54.09684
2021-06-08 18:49:01+00:00,258.243,10.16,14.0,47.84626,-54.09684
2021-06-08 18:59:01+00:00,257.3448,10.16,14.0,47.84626,-54.09684
2021-06-08 19:09:01+00:00,262.0614,10.17,14.0,47.84626,-54.09684
2021-06-08 19:19:01+00:00,272.6331,10.18,13.92,47.84626,-54.09684
2021-06-08 19:29:01+00:00,277.6281,10.19,13.92,47.84626,-54.09684
2021-06-08 19:39:01+00:00,276.3814,10.2,13.92,47.84626,-54.09684
2021-06-08 19:49:01+00:00,280.1697,10.2,13.92,47.84626,-54.09684
2021-06-08 19:59:01+00:00,286.7364,10.2,13.92,47.84626,-54.09684
2021-06-08 20:09:01+00:00,293.4813,10.2,13.92,47.84626,-54.09684
2021-06-08 20:19:01+00:00,299.4714,10.2,13.84,47.84626,-54.09684
2021-06-08 20:29:01+00:00,306.9313,10.19,13.84,47.84626,-54.09684
2021-06-08 20:39:01+00:00,311.3413,10.14,13.84,47.84626,-54.09684
2021-06-08 20:49:01+00:00,320.2697,10.1,13.84,47.84626,-54.09684
2021-06-08 20:59:01+00:00,328.6197,10.09,13.84,47.84626,-54.09684
2021-06-08 21:09:01+00:00,336.4479,10.0,13.84,47.84626,-54.09684
2021-06-08 21:19:01+00:00,344.093,10.0,13.68,47.84626,-54.09684
2021-06-08 21:29:01+00:00,348.898,9.97,13.68,47.84626,-54.09684
2021-06-08 21:39:01+00:00,348.6196,9.97,13.68,47.84626,-54.09684
2021-06-08 21:49:01+00:00,352.1313,9.97,13.68,47.84626,-54.09684
2021-06-08 21:59:01+00:00,361.9263,9.96,13.68,47.84626,-54.09684
2021-06-08 22:09:01+00:00,367.55800000000005,9.94,13.68,47.84626,-54.09684
2021-06-08 22:19:01+00:00,364.3929,9.97,13.6,47.84626,-54.09684
2021-06-08 22:29:01+00:00,365.5696,10.0,13.6,47.84626,-54.09684
2021-06-08 22:39:01+00:00,369.5113,10.0,13.6,47.84626,-54.09684
2021-06-08 22:49:01+00:00,366.6912,10.0,13.6,47.84626,-54.09684
2021-06-08 22:59:01+00:00,361.6345,9.99,13.6,47.84626,-54.09684
2021-06-08 23:09:01+00:00,363.3846,9.98,13.6,47.84626,-54.09684
2021-06-08 23:19:01+00:00,360.6912,9.97,13.29,47.84626,-54.09684
2021-06-08 23:29:01+00:00,353.973,9.99,13.29,47.84626,-54.09684
2021-06-08 23:39:01+00:00,355.5145,10.0,13.29,47.84626,-54.09684
2021-06-08 23:49:01+00:00,357.9329,9.96,13.29,47.84626,-54.09684
2021-06-08 23:59:01+00:00,350.5746,9.97,13.29,47.84626,-54.09684
